DELTA 1 DEB, 10710

Orbit data source: Space-Track

DELTA 1 DEB, 10710 is space debris in LEO originally from a launch on Thu, 29 Jul 1976 UTC launched from the Air Force Western Test Range (AFWTR). Debris objects in space refer to the collection of defunct objects orbiting the Earth. Examples of debris include non-operational satellites, rocket bodies, and fragments generated from explosions, collisions, or faulty payload assembly.

Loading next visibility...
Identifier
10710, 1976-077AF
Orbit
LEO
Country
Flag of USUS
Related business
Manufacturer
Unknown
Mission
Spacecraft
Bus & Motor
Unknown
Mass
Unknown
Launch date (UTC)
1976-07-29 (50 years ago)
Launch vehicle
Unknown
Launch site
Air Force Western Test Range (AFWTR)
Object type
Payload
Rocket body
Debris
Shape & HBR
Unknown shape, 0.1 m
Radar Cross Section
Small (<0.1 m²)

Expand to show TLE details & history
Last TLE update: 1 day ago

TLE from 1 day ago
0 DELTA 1 DEB
1 10710U 76077AF  26033.40179637  .00000163  00000-0  22808-2 0  9999
2 10710 101.7688 201.7747 0269317 284.8415 100.7325 11.99304151136620
Epoch: 2026-02-02T09:38Z
TLE epoch observation values (Epoch: 2026-02-02T09:38:35.206Z)
Latitude
27.97093°
Longitude
-81.79158°
Altitude
1,733.11 km
Speed
6.994 km/s
True Right ascension
13h 01m 48s
True Declination
27° 50' 45"
Sunlit
Object was in daylight at epoch
Visualization orbit readout
Latitude
Unknown
Longitude
Unknown
Altitude
Unknown
Speed
Unknown
Apparent Right ascension
Unknown
Apparent Declination
Unknown
Sunlit
N/A
Visualization observer readout
Local Sidereal Time
11:46:41
Azimuth
Unknown
Elevation
Unknown
Doppler factor
Unknown
Orbital elements
Apogee altitude
1,898.652 km
Perigee altitude
1,464.528 km
Semi-major axis
8,059.727 km
Eccentricity
0.02693
Inclination
101.7688°
RAAN
201.7747°
Arg. of periapsis
284.8415°
True anomaly
103.74438°
Mean anomaly
100.7325°
Eccentric anomaly
102.24049°
Mean motion
2.9996 °/min
Orbital period
120.02 mins
BSTAR
0.0022808
Loading maneuver chart data...
Computing Atmospheric mass density...
Loading historical data...
Loading historical data...
Loading historical data...
Loading historical data...
Loading historical data...
Loading historical data...
Loading historical data...

Documentation

Showing up to 5 results
|